CZ-6A DEB, 56595

Orbit data source: Space-Track

CZ-6A DEB, 56595 is space debris in SSO originally from a launch on Fri, 11 Nov 2022 UTC launched from the Taiyaun Space Center, China (TSC). Debris objects in space refer to the collection of defunct objects orbiting the Earth. Examples of debris include non-operational satellites, rocket bodies, and fragments generated from explosions, collisions, or faulty payload assembly.

Loading next visibility...
Identifier
56595, 2022-151ADT
Orbit
SSO
Country
Flag of CNCN / PRC
Related business
Manufacturer
SAST
Mission
Spacecraft
Bus & Motor
Unknown
Mass
Unknown
Launch date (UTC)
2022-11-11 (4 years ago)
Launch vehicle
Unknown
Launch site
Taiyaun Space Center, China (TSC)
Object type
Payload
Rocket body
Debris
Shape & HBR
Unknown shape, 0.1 m
Radar Cross Section
Medium (>0.1 m² and <1 m²)

Expand to show TLE details & history
Last TLE update: 3 days ago

TLE from 3 days ago
0 CZ-6A DEB
1 56595U 22151ADT 26170.29115586  .00000851  00000-0  37518-3 0  9995
2 56595  98.7298 172.8213 0132462 172.6071 187.7101 14.21311454163192
Epoch: 2026-06-19T06:59Z
TLE epoch observation values (Epoch: 2026-06-19T06:59:15.866Z)
Latitude
0.00001°
Longitude
160.48295°
Altitude
918.377 km
Speed
7.344 km/s
True Right ascension
11h 31m 17s
True Declination
0° 00' 00"
Sunlit
Object was in daylight at epoch
Visualization orbit readout
Latitude
Unknown
Longitude
Unknown
Altitude
Unknown
Speed
Unknown
Apparent Right ascension
Unknown
Apparent Declination
Unknown
Sunlit
N/A
Visualization observer readout
Local Sidereal Time
21:35:12
Azimuth
Unknown
Elevation
Unknown
Doppler factor
Unknown
Orbital elements
Apogee altitude
913.401 km
Perigee altitude
722.756 km
Semi-major axis
7,196.215 km
Eccentricity
0.01325
Inclination
98.7298°
RAAN
172.8213°
Arg. of periapsis
172.6071°
True anomaly
187.50975°
Mean anomaly
187.7101°
Eccentric anomaly
187.6096°
Mean motion
3.55539 °/min
Orbital period
101.25 mins
BSTAR
0.00037518
Loading maneuver chart data...
Computing Atmospheric mass density...
Loading historical data...
Loading historical data...
Loading historical data...
Loading historical data...
Loading historical data...
Loading historical data...
Loading historical data...

Documentation

Showing up to 5 results
|